This is the latest recevied weather packets stored in our database for station/object K5UTC. If no packets are shown the sender has not sent any weather packets the latest 1 day(s).
| Time | Temp. | Humidity | Pressure | Rain* | Wind** | Luminosity | Snow |
|---|---|---|---|---|---|---|---|
| 1836274731 | 21.11° C | 94% | 1017.1 hPa | 0 mm | 0 m/s | 0 W/m² | - |
| 1836274584 | 21.11° C | 94% | 1017.2 hPa | 0 mm | 0 m/s | 0 W/m² | - |
| 1836274429 | 21.11° C | 93% | 1017 hPa | 0 mm | 0 m/s | 0 W/m² | - |
| 1836274283 | 21.11° C | 94% | 1017.1 hPa | 0 mm | 0 m/s | 0 W/m² | - |
| 1836274128 | 21.11° C | 94% | 1017 hPa | 0 mm | 0 m/s | 0 W/m² | - |
| 1778054210 | 22.78° C | 72% | 1008.3 hPa | 0 mm | 0.45 m/s, 200° | 0 W/m² | - |
| 1778053906 | 22.78° C | 71% | 1008.5 hPa | 0 mm | 0.45 m/s, 172° | 0 W/m² | - |
| 1778053604 | 22.78° C | 71% | 1008.4 hPa | 0 mm | 0.45 m/s, 171° | 0 W/m² | - |
| 1778053301 | 22.78° C | 71% | 1008.2 hPa | 0 mm | 0.89 m/s, 157° | 0 W/m² | - |
| 1778052999 | 22.78° C | 71% | 1008 hPa | 0 mm | 0.45 m/s, 168° | 0 W/m² | - |
| 1778052696 | 22.78° C | 71% | 1008 hPa | 0 mm | 0 m/s | 0 W/m² | - |
| 1778052392 | 22.78° C | 71% | 1008.3 hPa | 0 mm | 0.45 m/s, 166° | 0 W/m² | - |
| 1778052090 | 22.78° C | 71% | 1008.1 hPa | 0 mm | 0.45 m/s, 151° | 0 W/m² | - |
| 1778051788 | 22.78° C | 70% | 1007.9 hPa | 0 mm | 0.45 m/s, 159° | 0 W/m² | - |
| 1778051485 | 22.78° C | 70% | 1008 hPa | 0 mm | 0.45 m/s, 187° | 0 W/m² | - |
| 1778051182 | 22.78° C | 69% | 1008 hPa | 0 mm | 0.45 m/s, 152° | 0 W/m² | - |
| 1778050879 | 22.78° C | 69% | 1007.9 hPa | 0 mm | 0 m/s | 0 W/m² | - |
| 1778050577 | 22.78° C | 68% | 1008.1 hPa | 0 mm | 0 m/s | 0 W/m² | - |
| 1778050274 | 22.78° C | 68% | 1008.1 hPa | 0 mm | 0 m/s | 0 W/m² | - |
| 1778049970 | 22.78° C | 68% | 1008 hPa | 0 mm | 0.45 m/s, 250° | 0 W/m² | - |
| 1778049666 | 22.78° C | 68% | 1008.1 hPa | 0 mm | 0.89 m/s, 73° | 0 W/m² | - |
| 1778049364 | 23.33° C | 67% | 1008.1 hPa | 0 mm | 0 m/s | 0 W/m² | - |
| 1778049061 | 23.33° C | 68% | 1008.4 hPa | 0 mm | 0.89 m/s, 154° | 0 W/m² | - |
| 1778048759 | 23.33° C | 67% | 1008.2 hPa | 0 mm | 0.45 m/s, 196° | 0 W/m² | - |
| 1778048456 | 23.33° C | 66% | 1008.6 hPa | 0 mm | 0.45 m/s, 156° | 0 W/m² | - |
* Rain latest hour (hover to see other rain measurements)
** Current wind speed in m/s (hover to see current wind gust speed)